Вернуться в каталог

FENGYUN 1C DEB

LostPO
NORAD 36991·DEBRIS·🇨🇳 China

Запущен May 10, 1999 с Taiyuan Satellite Launch Center

Loading…

Ближайшие Пролёты (ближайшие 24 часа)

TLE

УстаревшееSource: Space-Track

Эпоха: Mar 25, 2024, 14:28 UTC

1 36991U 99025EBX 24085.60280929  .00006900  00000-0  60364-2 0  9994
2 36991  98.1245 217.6807 0271326 284.0357  73.0772 13.70489574818922

Отслеживайте FENGYUN 1C DEB в реальном времени с AllMySat

Download on the App Store